sat.trackr.live / text

‹ back to catalog

STARLINK-2682

NORAD 48440 · 2021-040N

PAYLOAD ACTIVE UNKNOWN

§ Identity

Operator
Country
US
Launch date
2021-05-09
Launch site
AFETR
Launch vehicle
Mass (kg)
RCS (m²)

Purposes: comms

External: N2YO · Heavens-Above · Gunter

§ Orbital elements

Epoch: 2026-09-12T04:14:01.754016Z

Period
94.01 min
Inclination
53.1600°
Eccentricity
0.0001218
Mean motion
15.31701072 rev/d
Perigee alt
469.9 km
Apogee alt
471.6 km
Semi-major
6,848.9 km
B*
1.3992e-4
RAAN
30.2590°
Arg perigee
91.6494°
Mean anomaly
268.4647°
Rev number
29,525

§ Raw data

STARLINK-26821 48440U 21040N   26255.17640919  .00003979  00000+0  13992-3 0  99982 48440  53.1600  30.2590 0001218  91.6494 268.4647 15.31701072295258

JSON: /api/v1/satellites/48440 · /tle

For live sub-satellite position, see the globe view (requires WebGL).

§ Visibility from observer

Set your observer location to see the next 7 days of passes ≥ 10°. The values pass through the URL so the page stays shareable.

No JS? Fill the form by hand. The geolocation button needs JavaScript.